ATLAS CENTAUR 2

Last updated on Sun Aug 09 2026 00:02:08 GMT+0000 (Coordinated Universal Time)

1 00694U 63047A 26220.64752957 .00000655 00000+0 67204-4 0 9994 2 00694 30.3558 65.9946 0545640 340.1757 17.8377 14.12595658153126
UTC large
Height (km)
Speed (km/s)
/
Latitude / Longitude
Inclination (degrees)
Orbital Period (minutes)
Azimuth
Elevation
Range (km)
Doppler Factor

Next 0 passes for location: London (51.5072 / 0.1276)

No passes found over London.
ATLAS CENTAUR 2